CFI023 ZSSS-ZBAD

Flight info

Callsign CFI023
Flight time 1h 49m
Altitude 36100
Route SASAN W161 VMB A593 DALIM W157 AVBOX
Aircraft C750/M-SDE2E3FGHIJ1RWXY/LB1

Departure

Time 2026-04-28 05:20
Airport Shanghai Hongqiao International Airport (ZSSS)

Arrival

Time 2026-04-28 07:09
Airport Beijing Daxing International Airport (ZBAD)
Time Latitude Longitude Altitude Speed Heading
2026-04-28 04:54 31.18696 121.34120 15 ft 0 kts 87°
2026-04-28 05:08 31.18695 121.34113 15 ft 1 kts 87°
2026-04-28 05:08 31.18695 121.34104 15 ft 1 kts 87°
2026-04-28 05:09 31.18694 121.34095 15 ft 1 kts 87°
2026-04-28 05:09 31.18694 121.34087 15 ft 1 kts 87°
2026-04-28 05:09 31.18694 121.34080 15 ft 1 kts 87°
2026-04-28 05:09 31.18693 121.34073 15 ft 1 kts 87°
2026-04-28 05:10 31.18693 121.34066 15 ft 1 kts 87°
2026-04-28 05:10 31.18693 121.34058 15 ft 1 kts 94°
2026-04-28 05:10 31.18693 121.34051 15 ft 1 kts 107°
2026-04-28 05:10 31.18696 121.34044 15 ft 1 kts 130°
2026-04-28 05:11 31.18699 121.34039 15 ft 1 kts 127°
2026-04-28 05:11 31.18703 121.34033 15 ft 1 kts 141°
2026-04-28 05:11 31.18708 121.34029 15 ft 1 kts 141°
2026-04-28 05:11 31.18713 121.34024 15 ft 1 kts 188°
2026-04-28 05:12 31.18719 121.34025 15 ft 1 kts 181°
2026-04-28 05:12 31.18720 121.34026 15 ft 0 kts 181°
2026-04-28 05:13 31.18715 121.34026 15 ft 3 kts 180°
2026-04-28 05:13 31.18674 121.34028 15 ft 9 kts 176°
2026-04-28 05:14 31.18588 121.34032 15 ft 16 kts 179°
2026-04-28 05:14 31.18458 121.34039 15 ft 16 kts 184°
2026-04-28 05:14 31.18421 121.34013 15 ft 3 kts 248°
2026-04-28 05:14 31.18418 121.34005 15 ft 1 kts 254°
2026-04-28 05:15 31.18415 121.33970 15 ft 8 kts 258°
2026-04-28 05:15 31.18386 121.33903 15 ft 7 kts 235°
2026-04-28 05:15 31.18369 121.33870 15 ft 2 kts 245°
2026-04-28 05:15 31.18368 121.33856 15 ft 3 kts 270°
2026-04-28 05:16 31.18367 121.33828 15 ft 3 kts 266°
2026-04-28 05:16 31.18367 121.33821 15 ft 1 kts 266°
2026-04-28 05:16 31.18364 121.33761 14 ft 15 kts 266°
2026-04-28 05:17 31.18357 121.33591 15 ft 4 kts 267°
2026-04-28 05:17 31.18356 121.33543 16 ft 11 kts 268°
2026-04-28 05:17 31.18351 121.33439 16 ft 11 kts 266°
2026-04-28 05:17 31.18349 121.33371 15 ft 6 kts 272°
2026-04-28 05:18 31.18366 121.33341 15 ft 7 kts 313°
2026-04-28 05:18 31.18400 121.33323 16 ft 4 kts 351°
2026-04-28 05:18 31.18429 121.33321 16 ft 0 kts 357°
2026-04-28 05:19 31.18500 121.33317 17 ft 37 kts 357°
2026-04-28 05:19 31.19069 121.33286 15 ft 124 kts 359°
2026-04-28 05:19 31.20072 121.33233 150 ft 157 kts 358°
2026-04-28 05:20 31.21116 121.33144 506 ft 142 kts 358°
2026-04-28 05:20 31.22064 121.32954 1040 ft 145 kts 353°
2026-04-28 05:20 31.23168 121.33240 652 ft 186 kts 24°
2026-04-28 05:20 31.24452 121.33298 1420 ft 177 kts 357°
2026-04-28 05:21 31.25607 121.33042 2323 ft 168 kts 356°
2026-04-28 05:21 31.26851 121.32940 2718 ft 191 kts 360°
2026-04-28 05:21 31.28172 121.32321 2977 ft 223 kts 324°
2026-04-28 05:21 31.29047 121.30833 3724 ft 231 kts 298°
2026-04-28 05:22 31.29636 121.28962 4203 ft 258 kts 291°
2026-04-28 05:22 31.30220 121.26914 4948 ft 268 kts 291°
2026-04-28 05:22 31.30849 121.24870 5943 ft 269 kts 289°
2026-04-28 05:22 31.31512 121.22787 6735 ft 276 kts 288°
2026-04-28 05:23 31.32171 121.20679 7694 ft 276 kts 287°
2026-04-28 05:23 31.32823 121.18563 8712 ft 278 kts 287°
2026-04-28 05:23 31.33484 121.16427 9682 ft 280 kts 286°
2026-04-28 05:23 31.34155 121.14266 10387 ft 289 kts 286°
2026-04-28 05:24 31.34866 121.11952 10525 ft 316 kts 286°
2026-04-28 05:24 31.35643 121.09428 10582 ft 342 kts 286°
2026-04-28 05:24 31.36443 121.06796 11278 ft 343 kts 286°
2026-04-28 05:24 31.37237 121.04164 12030 ft 344 kts 286°
2026-04-28 05:25 31.38034 121.01515 12708 ft 347 kts 287°
2026-04-28 05:25 31.38830 120.98880 13400 ft 349 kts 287°
2026-04-28 05:25 31.39641 120.96196 14061 ft 351 kts 287°
2026-04-28 05:25 31.40455 120.93496 14667 ft 352 kts 286°
2026-04-28 05:26 31.41279 120.90778 15253 ft 354 kts 286°
2026-04-28 05:26 31.42107 120.88053 15852 ft 356 kts 286°
2026-04-28 05:26 31.42941 120.85301 16475 ft 358 kts 286°
2026-04-28 05:26 31.43775 120.82539 17124 ft 360 kts 286°
2026-04-28 05:27 31.44600 120.79808 17780 ft 362 kts 285°
2026-04-28 05:27 31.45442 120.77018 18440 ft 364 kts 285°
2026-04-28 05:27 31.46290 120.74207 19015 ft 367 kts 285°
2026-04-28 05:27 31.47143 120.71376 19591 ft 370 kts 285°
2026-04-28 05:28 31.48005 120.68512 20168 ft 374 kts 285°
2026-04-28 05:28 31.48874 120.65625 20761 ft 377 kts 285°
2026-04-28 05:28 31.49749 120.62713 21349 ft 380 kts 285°
2026-04-28 05:28 31.50633 120.59765 21953 ft 384 kts 285°
2026-04-28 05:29 31.51523 120.56799 22538 ft 387 kts 285°
2026-04-28 05:29 31.52408 120.53845 23106 ft 391 kts 285°
2026-04-28 05:29 31.53283 120.50948 23241 ft 347 kts 285°
2026-04-28 05:29 31.54026 120.48527 23086 ft 285 kts 284°
2026-04-28 05:30 31.54632 120.46484 22936 ft 255 kts 283°
2026-04-28 05:30 31.55203 120.44499 22842 ft 256 kts 283°
2026-04-28 05:30 31.55787 120.42526 22794 ft 256 kts 283°
2026-04-28 05:30 31.56380 120.40560 22782 ft 255 kts 283°
2026-04-28 05:31 31.56966 120.38603 22788 ft 253 kts 283°
2026-04-28 05:31 31.57542 120.36664 22791 ft 252 kts 283°
2026-04-28 05:31 31.58117 120.34727 22796 ft 251 kts 283°
2026-04-28 05:31 31.58765 120.32853 22772 ft 255 kts 292°
2026-04-28 05:32 31.59916 120.31184 22741 ft 267 kts 309°
2026-04-28 05:32 31.61427 120.29876 22744 ft 271 kts 316°
2026-04-28 05:32 31.62951 120.28635 22763 ft 269 kts 316°
2026-04-28 05:32 31.64477 120.27364 22772 ft 269 kts 316°
2026-04-28 05:33 31.66006 120.26087 22784 ft 268 kts 316°
2026-04-28 05:33 31.67527 120.24824 22785 ft 268 kts 316°
2026-04-28 05:33 31.69051 120.23561 22785 ft 268 kts 316°
2026-04-28 05:33 31.70561 120.22306 22790 ft 268 kts 316°
2026-04-28 05:34 31.72080 120.21042 22784 ft 268 kts 316°
2026-04-28 05:34 31.73604 120.19775 22784 ft 268 kts 316°
2026-04-28 05:34 31.75122 120.18509 22793 ft 267 kts 316°
2026-04-28 05:34 31.76619 120.17226 22790 ft 266 kts 315°
2026-04-28 05:35 31.78113 120.15937 22792 ft 266 kts 315°
2026-04-28 05:35 31.79613 120.14654 22789 ft 266 kts 316°
2026-04-28 05:35 31.81108 120.13379 22798 ft 266 kts 316°
2026-04-28 05:35 31.82603 120.12101 22797 ft 265 kts 316°
2026-04-28 05:36 31.84095 120.10822 22802 ft 265 kts 316°
2026-04-28 05:36 31.85592 120.09540 22800 ft 265 kts 316°
2026-04-28 05:36 31.87084 120.08262 22798 ft 265 kts 316°
2026-04-28 05:36 31.88578 120.06982 22799 ft 265 kts 316°
2026-04-28 05:37 31.90068 120.05704 22808 ft 265 kts 316°
2026-04-28 05:37 31.91545 120.04437 22812 ft 265 kts 316°
2026-04-28 05:37 31.93037 120.03157 22813 ft 265 kts 316°
2026-04-28 05:37 31.94528 120.01878 22818 ft 265 kts 315°
2026-04-28 05:38 31.96012 120.00602 22825 ft 264 kts 315°
2026-04-28 05:38 31.96996 119.99757 22828 ft 264 kts 315°
2026-04-28 05:38 31.98480 119.98482 22830 ft 264 kts 315°
2026-04-28 05:38 31.99963 119.97207 22829 ft 264 kts 315°
2026-04-28 05:39 32.01943 119.95504 22833 ft 263 kts 315°
2026-04-28 05:39 32.02921 119.94662 22831 ft 263 kts 315°
2026-04-28 05:39 32.04878 119.92978 22834 ft 262 kts 315°
2026-04-28 05:39 32.06358 119.91719 22831 ft 262 kts 315°
2026-04-28 05:40 32.07842 119.90461 22834 ft 262 kts 315°
2026-04-28 05:40 32.08820 119.89628 22838 ft 262 kts 315°
2026-04-28 05:40 32.10293 119.88372 22842 ft 261 kts 315°
2026-04-28 05:40 32.11765 119.87117 22847 ft 261 kts 315°
2026-04-28 05:41 32.13234 119.85864 22848 ft 260 kts 315°
2026-04-28 05:41 32.14700 119.84614 22855 ft 260 kts 315°
2026-04-28 05:41 32.16170 119.83359 22859 ft 259 kts 315°
2026-04-28 05:41 32.18103 119.81709 22858 ft 259 kts 315°
2026-04-28 05:42 32.19090 119.80866 22861 ft 259 kts 315°
2026-04-28 05:42 32.20529 119.79636 22864 ft 258 kts 315°
2026-04-28 05:42 32.21985 119.78391 22869 ft 258 kts 314°
2026-04-28 05:42 32.23929 119.76729 22874 ft 257 kts 314°
2026-04-28 05:43 32.24887 119.75909 22876 ft 257 kts 314°
2026-04-28 05:43 32.26343 119.74668 22881 ft 257 kts 314°
2026-04-28 05:43 32.27796 119.73433 22881 ft 257 kts 314°
2026-04-28 05:43 32.29247 119.72198 22883 ft 257 kts 314°
2026-04-28 05:44 32.30700 119.70960 22885 ft 257 kts 314°
2026-04-28 05:44 32.32132 119.69739 22892 ft 257 kts 314°
2026-04-28 05:44 32.33587 119.68497 22899 ft 257 kts 314°
2026-04-28 05:44 32.35037 119.67260 22904 ft 257 kts 314°
2026-04-28 05:45 32.36488 119.66021 22905 ft 257 kts 314°
2026-04-28 05:45 32.37940 119.64782 22910 ft 257 kts 314°
2026-04-28 05:45 32.39391 119.63542 22918 ft 257 kts 314°
2026-04-28 05:45 32.40826 119.62316 22922 ft 257 kts 314°
2026-04-28 05:46 32.42276 119.61077 22925 ft 257 kts 314°
2026-04-28 05:46 32.43729 119.59834 22930 ft 257 kts 314°
2026-04-28 05:46 32.45186 119.58587 22940 ft 257 kts 314°
2026-04-28 05:46 32.46619 119.57360 22945 ft 257 kts 314°
2026-04-28 05:47 32.48068 119.56113 22951 ft 257 kts 313°
2026-04-28 05:47 32.49514 119.54862 22956 ft 257 kts 313°
2026-04-28 05:47 32.50961 119.53611 22957 ft 258 kts 313°
2026-04-28 05:47 32.52411 119.52360 22965 ft 258 kts 313°
2026-04-28 05:48 32.53865 119.51104 22970 ft 258 kts 313°
2026-04-28 05:48 32.55324 119.49843 22975 ft 258 kts 313°
2026-04-28 05:48 32.56778 119.48586 22978 ft 258 kts 313°
2026-04-28 05:48 32.58210 119.47347 22987 ft 259 kts 313°
2026-04-28 05:49 32.59665 119.46088 22995 ft 259 kts 313°
2026-04-28 05:49 32.61121 119.44828 23003 ft 259 kts 313°
2026-04-28 05:49 32.62582 119.43562 23002 ft 259 kts 313°
2026-04-28 05:49 32.64042 119.42298 23004 ft 260 kts 313°
2026-04-28 05:50 32.65504 119.41031 23007 ft 260 kts 313°
2026-04-28 05:50 32.66966 119.39763 23015 ft 260 kts 313°
2026-04-28 05:50 32.68430 119.38493 23016 ft 260 kts 313°
2026-04-28 05:50 32.69894 119.37223 23021 ft 261 kts 313°
2026-04-28 05:51 32.71341 119.35966 23020 ft 261 kts 313°
2026-04-28 05:51 32.72806 119.34693 23015 ft 261 kts 313°
2026-04-28 05:51 32.74274 119.33418 23032 ft 261 kts 313°
2026-04-28 05:51 32.75745 119.32140 23035 ft 262 kts 313°
2026-04-28 05:52 32.77217 119.30860 23035 ft 262 kts 313°
2026-04-28 05:52 32.78690 119.29578 23041 ft 262 kts 313°
2026-04-28 05:52 32.80163 119.28296 23049 ft 263 kts 313°
2026-04-28 05:52 32.81639 119.27011 23053 ft 263 kts 313°
2026-04-28 05:53 32.83115 119.25725 23061 ft 263 kts 313°
2026-04-28 05:53 32.84591 119.24438 23059 ft 263 kts 313°
2026-04-28 05:53 32.86071 119.23148 23066 ft 263 kts 313°
2026-04-28 05:53 32.87537 119.21870 23067 ft 264 kts 313°
2026-04-28 05:54 32.89019 119.20577 23069 ft 264 kts 313°
2026-04-28 05:54 32.90499 119.19284 23070 ft 264 kts 313°
2026-04-28 05:54 32.91983 119.17989 23072 ft 264 kts 313°
2026-04-28 05:54 32.93469 119.16691 23074 ft 265 kts 313°
2026-04-28 05:55 32.94939 119.15407 23080 ft 265 kts 313°
2026-04-28 05:55 32.96438 119.14120 23083 ft 266 kts 313°
2026-04-28 05:55 32.97946 119.12832 23083 ft 266 kts 313°
2026-04-28 05:55 32.99444 119.11542 23086 ft 266 kts 313°
2026-04-28 05:56 33.00947 119.10246 23091 ft 267 kts 313°
2026-04-28 05:56 33.02456 119.08945 23091 ft 267 kts 313°
2026-04-28 05:56 33.03961 119.07649 23098 ft 267 kts 313°
2026-04-28 05:56 33.05450 119.06365 23106 ft 267 kts 313°
2026-04-28 05:57 33.06959 119.05063 23114 ft 267 kts 313°
2026-04-28 05:57 33.08468 119.03760 23122 ft 268 kts 313°
2026-04-28 05:57 33.09980 119.02455 23129 ft 268 kts 313°
2026-04-28 05:57 33.11480 119.01163 23332 ft 261 kts 313°
2026-04-28 05:58 33.12957 118.99884 23673 ft 271 kts 312°
2026-04-28 05:58 33.14541 118.98484 23789 ft 296 kts 313°
2026-04-28 05:58 33.16283 118.96971 23867 ft 323 kts 315°
2026-04-28 05:58 33.18179 118.95346 23940 ft 347 kts 315°
2026-04-28 05:59 33.20174 118.93627 24018 ft 369 kts 315°
2026-04-28 05:59 33.22307 118.91767 24084 ft 389 kts 315°
2026-04-28 05:59 33.24546 118.89803 24138 ft 409 kts 316°
2026-04-28 05:59 33.26882 118.87766 24451 ft 419 kts 316°
2026-04-28 06:00 33.29238 118.85727 25114 ft 419 kts 316°
2026-04-28 06:00 33.31598 118.83670 25673 ft 422 kts 316°
2026-04-28 06:00 33.33980 118.81604 26253 ft 424 kts 316°
2026-04-28 06:00 33.36385 118.79529 26819 ft 427 kts 317°
2026-04-28 06:01 33.38799 118.77439 27386 ft 429 kts 316°
2026-04-28 06:01 33.41231 118.75326 27969 ft 432 kts 316°
2026-04-28 06:01 33.43670 118.73206 28530 ft 434 kts 316°
2026-04-28 06:01 33.46125 118.71075 29086 ft 437 kts 316°
2026-04-28 06:02 33.48592 118.68933 29634 ft 440 kts 316°
2026-04-28 06:02 33.51081 118.66778 30176 ft 442 kts 317°
2026-04-28 06:02 33.53580 118.64616 30633 ft 444 kts 317°
2026-04-28 06:02 33.56092 118.62438 31094 ft 446 kts 316°
2026-04-28 06:03 33.58596 118.60264 31759 ft 442 kts 316°
2026-04-28 06:03 33.61045 118.58140 32467 ft 438 kts 316°
2026-04-28 06:03 33.63509 118.55996 33136 ft 435 kts 316°
2026-04-28 06:03 33.65952 118.53868 33820 ft 433 kts 316°
2026-04-28 06:04 33.68386 118.51749 34450 ft 430 kts 316°
2026-04-28 06:04 33.70796 118.49651 35083 ft 426 kts 316°
2026-04-28 06:04 33.73186 118.47569 35755 ft 422 kts 315°
2026-04-28 06:04 33.75559 118.45495 36245 ft 423 kts 315°
2026-04-28 06:05 33.77966 118.43379 36228 ft 435 kts 315°
2026-04-28 06:05 33.80447 118.41205 36233 ft 447 kts 315°
2026-04-28 06:05 33.85594 118.36720 36247 ft 465 kts 315°
2026-04-28 06:06 33.90856 118.32103 36249 ft 476 kts 316°
2026-04-28 06:06 33.96259 118.27368 36245 ft 482 kts 316°
2026-04-28 06:07 34.01691 118.22629 36247 ft 482 kts 316°
2026-04-28 06:07 34.07138 118.17895 36249 ft 482 kts 316°
2026-04-28 06:08 34.12543 118.13175 36250 ft 483 kts 316°
2026-04-28 06:08 34.18010 118.08422 36245 ft 484 kts 316°
2026-04-28 06:09 34.23473 118.03645 36247 ft 484 kts 315°
2026-04-28 06:09 34.29373 117.99548 36228 ft 502 kts 327°
2026-04-28 06:10 34.36110 117.96896 36250 ft 513 kts 334°
2026-04-28 06:10 34.42965 117.94434 36253 ft 512 kts 334°
2026-04-28 06:11 34.49814 117.91991 36249 ft 513 kts 334°
2026-04-28 06:11 34.56629 117.89550 36254 ft 513 kts 334°
2026-04-28 06:12 34.63480 117.87088 36252 ft 513 kts 334°
2026-04-28 06:12 34.70342 117.84627 36249 ft 513 kts 334°
2026-04-28 06:13 34.77148 117.82173 36252 ft 513 kts 334°
2026-04-28 06:13 34.83988 117.79707 36255 ft 512 kts 334°
2026-04-28 06:14 34.90801 117.77191 36258 ft 512 kts 333°
2026-04-28 06:14 34.97640 117.74709 36248 ft 511 kts 333°
2026-04-28 06:15 35.04454 117.72202 36259 ft 511 kts 333°
2026-04-28 06:15 35.11272 117.69706 36259 ft 511 kts 333°
2026-04-28 06:16 35.18084 117.67208 36257 ft 510 kts 333°
2026-04-28 06:16 35.24893 117.64703 36262 ft 510 kts 333°
2026-04-28 06:17 35.31658 117.62214 36256 ft 510 kts 333°
2026-04-28 06:18 35.41845 117.58454 36262 ft 509 kts 333°
2026-04-28 06:18 35.48632 117.55943 36260 ft 508 kts 333°
2026-04-28 06:19 35.55399 117.53437 36258 ft 507 kts 333°
2026-04-28 06:19 35.62164 117.50924 36263 ft 507 kts 333°
2026-04-28 06:20 35.68883 117.48428 36256 ft 507 kts 332°
2026-04-28 06:20 35.75641 117.45910 36262 ft 506 kts 332°
2026-04-28 06:21 35.82387 117.43392 36257 ft 506 kts 332°
2026-04-28 06:21 35.89127 117.40874 36263 ft 506 kts 332°
2026-04-28 06:22 35.95867 117.38350 36267 ft 505 kts 332°
2026-04-28 06:22 36.02547 117.35848 36270 ft 504 kts 332°
2026-04-28 06:23 36.09273 117.33382 36260 ft 502 kts 332°
2026-04-28 06:23 36.15980 117.30890 36265 ft 503 kts 332°
2026-04-28 06:24 36.22687 117.28410 36271 ft 501 kts 332°
2026-04-28 06:24 36.29352 117.25933 36270 ft 499 kts 332°
2026-04-28 06:25 36.35968 117.23472 36276 ft 498 kts 332°
2026-04-28 06:25 36.42563 117.20904 36273 ft 489 kts 328°
2026-04-28 06:26 36.48754 117.17664 36283 ft 486 kts 326°
2026-04-28 06:26 36.55009 117.14452 36286 ft 485 kts 326°
2026-04-28 06:27 36.61216 117.11193 36286 ft 483 kts 326°
2026-04-28 06:27 36.67428 117.07967 36289 ft 483 kts 326°
2026-04-28 06:28 36.72577 117.05270 36294 ft 483 kts 326°
2026-04-28 06:28 36.79782 117.01500 36297 ft 483 kts 326°
2026-04-28 06:29 36.85975 116.98251 36300 ft 482 kts 325°
2026-04-28 06:29 36.92173 116.94994 36299 ft 482 kts 325°
2026-04-28 06:30 36.97358 116.92266 36302 ft 482 kts 325°
2026-04-28 06:30 37.03543 116.89005 36304 ft 482 kts 325°
2026-04-28 06:31 37.09727 116.85740 36307 ft 482 kts 325°
2026-04-28 06:31 37.15906 116.82471 36306 ft 482 kts 325°
2026-04-28 06:32 37.22082 116.79283 36295 ft 488 kts 328°
2026-04-28 06:32 37.28673 116.76797 36309 ft 494 kts 330°
2026-04-28 06:33 37.35214 116.74291 36311 ft 494 kts 330°
2026-04-28 06:33 37.41811 116.71824 36314 ft 495 kts 330°
2026-04-28 06:34 37.48428 116.69423 36314 ft 495 kts 331°
2026-04-28 06:34 37.55077 116.67083 36312 ft 496 kts 332°
2026-04-28 06:35 37.61746 116.64813 36312 ft 495 kts 332°
2026-04-28 06:35 37.68423 116.62615 36313 ft 495 kts 332°
2026-04-28 06:36 37.75067 116.60503 36308 ft 495 kts 333°
2026-04-28 06:36 37.81753 116.58458 36324 ft 485 kts 333°
2026-04-28 06:36 37.84982 116.57537 35797 ft 467 kts 333°
2026-04-28 06:37 37.88107 116.56702 35228 ft 450 kts 333°
2026-04-28 06:37 37.91147 116.55945 34681 ft 438 kts 334°
2026-04-28 06:37 37.94123 116.55245 34138 ft 432 kts 334°
2026-04-28 06:37 37.97089 116.54570 33546 ft 435 kts 334°
2026-04-28 06:38 38.00107 116.53885 32843 ft 445 kts 335°
2026-04-28 06:38 38.03160 116.53187 32161 ft 453 kts 335°
2026-04-28 06:38 38.06285 116.52477 31500 ft 458 kts 335°
2026-04-28 06:38 38.09439 116.51767 30857 ft 463 kts 336°
2026-04-28 06:39 38.12631 116.51058 30219 ft 465 kts 336°
2026-04-28 06:39 38.15811 116.50375 29472 ft 459 kts 337°
2026-04-28 06:39 38.18934 116.49739 28736 ft 450 kts 338°
2026-04-28 06:39 38.22002 116.49152 28012 ft 441 kts 338°
2026-04-28 06:40 38.24972 116.48619 27314 ft 432 kts 339°
2026-04-28 06:40 38.27922 116.48126 26631 ft 424 kts 340°
2026-04-28 06:40 38.30821 116.47675 25969 ft 416 kts 341°
2026-04-28 06:40 38.33673 116.47265 25277 ft 408 kts 341°
2026-04-28 06:41 38.36387 116.46930 24574 ft 376 kts 342°
2026-04-28 06:41 38.39004 116.46656 23836 ft 371 kts 343°
2026-04-28 06:41 38.41547 116.46425 22960 ft 362 kts 344°
2026-04-28 06:41 38.44032 116.46217 22090 ft 354 kts 344°
2026-04-28 06:42 38.46412 116.45825 21252 ft 343 kts 339°
2026-04-28 06:42 38.48585 116.44850 20828 ft 322 kts 323°
2026-04-28 06:42 38.50218 116.42993 20351 ft 312 kts 303°
2026-04-28 06:42 38.51729 116.40991 19892 ft 323 kts 317°
2026-04-28 06:43 38.53701 116.39574 19531 ft 329 kts 328°
2026-04-28 06:43 38.55920 116.38696 19177 ft 339 kts 341°
2026-04-28 06:43 38.58306 116.38457 18829 ft 347 kts 351°
2026-04-28 06:43 38.60731 116.38583 18507 ft 350 kts 356°
2026-04-28 06:44 38.63153 116.38985 18130 ft 352 kts
2026-04-28 06:44 38.65543 116.39691 17745 ft 354 kts
2026-04-28 06:44 38.67849 116.40715 17354 ft 356 kts 15°
2026-04-28 06:44 38.70048 116.42192 16927 ft 360 kts 26°
2026-04-28 06:45 38.72047 116.44115 16541 ft 358 kts 33°
2026-04-28 06:45 38.73965 116.46135 16198 ft 354 kts 33°
2026-04-28 06:45 38.75926 116.48007 15784 ft 349 kts 30°
2026-04-28 06:45 38.77937 116.49715 15136 ft 342 kts 28°
2026-04-28 06:46 38.79897 116.51422 14190 ft 338 kts 32°
2026-04-28 06:46 38.81772 116.53167 13196 ft 328 kts 33°
2026-04-28 06:46 38.83583 116.54851 12654 ft 309 kts 33°
2026-04-28 06:46 38.85339 116.56434 12312 ft 313 kts 32°
2026-04-28 06:47 38.87135 116.58044 11900 ft 314 kts 32°
2026-04-28 06:47 38.88915 116.59667 11487 ft 314 kts 33°
2026-04-28 06:47 38.90695 116.61297 10885 ft 313 kts 33°
2026-04-28 06:47 38.92395 116.62848 10464 ft 291 kts 33°
2026-04-28 06:48 38.93983 116.64296 10091 ft 272 kts 33°
2026-04-28 06:48 38.95506 116.65680 9715 ft 265 kts 33°
2026-04-28 06:48 38.97012 116.67050 9363 ft 266 kts 33°
2026-04-28 06:48 38.98530 116.68435 9016 ft 268 kts 33°
2026-04-28 06:49 39.00055 116.69827 8666 ft 268 kts 33°
2026-04-28 06:49 39.01555 116.71196 8320 ft 268 kts 33°
2026-04-28 06:49 39.03067 116.72578 7966 ft 266 kts 33°
2026-04-28 06:49 39.04564 116.73946 7865 ft 262 kts 33°
2026-04-28 06:50 39.06097 116.75227 7816 ft 263 kts 23°
2026-04-28 06:50 39.07887 116.75456 7779 ft 262 kts 349°
2026-04-28 06:50 39.09510 116.74421 7849 ft 262 kts 327°
2026-04-28 06:50 39.11008 116.73064 7895 ft 264 kts 327°
2026-04-28 06:51 39.12606 116.71907 7872 ft 262 kts 336°
2026-04-28 06:51 39.14386 116.71478 7869 ft 260 kts 356°
2026-04-28 06:51 39.16211 116.71306 7873 ft 264 kts 354°
2026-04-28 06:51 39.18006 116.71028 7870 ft 264 kts 352°
2026-04-28 06:52 39.19820 116.70715 7869 ft 262 kts 353°
2026-04-28 06:52 39.21637 116.70438 7863 ft 264 kts 353°
2026-04-28 06:52 39.23456 116.70174 7866 ft 263 kts 353°
2026-04-28 06:52 39.25278 116.69900 7864 ft 263 kts 353°
2026-04-28 06:53 39.27097 116.69621 7761 ft 264 kts 353°
2026-04-28 06:53 39.28923 116.69341 7578 ft 262 kts 353°
2026-04-28 06:53 39.30635 116.68617 7267 ft 258 kts 331°
2026-04-28 06:53 39.31908 116.67141 7080 ft 237 kts 310°
2026-04-28 06:54 39.32630 116.65316 6939 ft 230 kts 290°
2026-04-28 06:54 39.32821 116.63252 6755 ft 234 kts 270°
2026-04-28 06:54 39.32620 116.61163 6640 ft 237 kts 265°
2026-04-28 06:54 39.31995 116.59169 6321 ft 246 kts 234°
2026-04-28 06:55 39.30624 116.57864 6103 ft 248 kts 203°
2026-04-28 06:55 39.28921 116.57623 5932 ft 247 kts 175°
2026-04-28 06:55 39.27208 116.57905 5785 ft 249 kts 172°
2026-04-28 06:55 39.25487 116.58211 5592 ft 250 kts 172°
2026-04-28 06:56 39.23780 116.58475 5351 ft 250 kts 173°
2026-04-28 06:56 39.22053 116.58724 5128 ft 250 kts 173°
2026-04-28 06:56 39.20355 116.58981 4900 ft 236 kts 173°
2026-04-28 06:56 39.18797 116.59222 4696 ft 219 kts 173°
2026-04-28 06:57 39.17291 116.59453 4487 ft 218 kts 173°
2026-04-28 06:57 39.15778 116.59685 4290 ft 220 kts 173°
2026-04-28 06:57 39.14268 116.59876 4100 ft 221 kts 178°
2026-04-28 06:57 39.12834 116.59255 3754 ft 219 kts 219°
2026-04-28 06:58 39.11976 116.57766 3813 ft 204 kts 251°
2026-04-28 06:58 39.11716 116.55946 3941 ft 210 kts 266°
2026-04-28 06:58 39.11557 116.54055 3946 ft 213 kts 266°
2026-04-28 06:58 39.11380 116.52177 3984 ft 207 kts 266°
2026-04-28 06:59 39.11200 116.50290 3924 ft 213 kts 266°
2026-04-28 06:59 39.11176 116.48442 3846 ft 205 kts 286°
2026-04-28 06:59 39.12023 116.47082 3809 ft 199 kts 332°
2026-04-28 06:59 39.13380 116.46936 3832 ft 200 kts 11°
2026-04-28 07:00 39.14711 116.47358 4012 ft 201 kts 13°
2026-04-28 07:00 39.16089 116.47738 3961 ft 194 kts
2026-04-28 07:00 39.17299 116.47808 3898 ft 156 kts 356°
2026-04-28 07:00 39.18267 116.47677 3882 ft 126 kts 353°
2026-04-28 07:01 39.19092 116.47546 3907 ft 115 kts 352°
2026-04-28 07:01 39.19912 116.47416 3906 ft 120 kts 353°
2026-04-28 07:01 39.20761 116.47282 3908 ft 125 kts 353°
2026-04-28 07:01 39.21614 116.47147 3929 ft 124 kts 353°
2026-04-28 07:02 39.22488 116.47018 3935 ft 128 kts 353°
2026-04-28 07:02 39.23354 116.46883 3931 ft 123 kts 353°
2026-04-28 07:02 39.24202 116.46767 3628 ft 123 kts 355°
2026-04-28 07:02 39.25064 116.46693 3345 ft 124 kts 354°
2026-04-28 07:03 39.25922 116.46525 3083 ft 127 kts 352°
2026-04-28 07:03 39.26819 116.46356 2682 ft 136 kts 352°
2026-04-28 07:03 39.27765 116.46176 2192 ft 137 kts 352°
2026-04-28 07:03 39.28697 116.46001 1917 ft 130 kts 351°
2026-04-28 07:04 39.29560 116.45844 1618 ft 121 kts 352°
2026-04-28 07:04 39.30381 116.45695 1448 ft 116 kts 353°
2026-04-28 07:04 39.31160 116.45577 1311 ft 111 kts 355°
2026-04-28 07:04 39.31940 116.45515 1071 ft 111 kts 356°
2026-04-28 07:05 39.32686 116.45413 1068 ft 106 kts 354°
2026-04-28 07:05 39.33408 116.45302 1176 ft 112 kts 354°
2026-04-28 07:05 39.34251 116.45169 1333 ft 129 kts 353°
2026-04-28 07:05 39.35134 116.45032 1451 ft 120 kts 353°
2026-04-28 07:06 39.35921 116.44908 1554 ft 109 kts 353°
2026-04-28 07:06 39.36678 116.44804 1520 ft 112 kts 355°
2026-04-28 07:06 39.37449 116.44724 1503 ft 114 kts 355°
2026-04-28 07:06 39.38291 116.44626 1432 ft 125 kts 356°
2026-04-28 07:07 39.39177 116.44439 1424 ft 135 kts 352°
2026-04-28 07:07 39.40123 116.44282 1458 ft 138 kts 353°
2026-04-28 07:07 39.41038 116.44113 1141 ft 130 kts 353°
2026-04-28 07:07 39.41906 116.43961 890 ft 121 kts 353°
2026-04-28 07:08 39.42718 116.43819 754 ft 118 kts 353°
2026-04-28 07:08 39.43532 116.43688 621 ft 118 kts 353°
2026-04-28 07:08 39.44363 116.43566 469 ft 120 kts 354°
2026-04-28 07:08 39.45239 116.43445 408 ft 136 kts 354°
2026-04-28 07:09 39.46178 116.43291 291 ft 133 kts 354°
2026-04-28 07:09 39.47081 116.43148 148 ft 129 kts 353°
2026-04-28 07:09 39.47900 116.43023 106 ft 97 kts 351°
2026-04-28 07:09 39.48369 116.42944 105 ft 43 kts 356°
2026-04-28 07:10 39.48617 116.42912 103 ft 33 kts 354°
2026-04-28 07:10 39.48823 116.42816 102 ft 31 kts 330°
2026-04-28 07:10 39.48971 116.42704 104 ft 19 kts 327°
2026-04-28 07:10 39.49067 116.42630 104 ft 10 kts 341°
2026-04-28 07:11 39.49114 116.42588 104 ft 5 kts 287°
2026-04-28 07:11 39.49112 116.42552 88 ft 4 kts 264°
2026-04-28 07:11 39.49123 116.42502 105 ft 12 kts 314°
2026-04-28 07:11 39.49208 116.42477 105 ft 12 kts 354°
2026-04-28 07:12 39.49290 116.42461 105 ft 12 kts 351°
2026-04-28 07:12 39.49365 116.42442 105 ft 10 kts 332°
2026-04-28 07:12 39.49429 116.42391 105 ft 11 kts 326°
2026-04-28 07:12 39.49490 116.42339 105 ft 10 kts 326°
2026-04-28 07:13 39.49553 116.42308 105 ft 10 kts 352°
2026-04-28 07:13 39.49619 116.42296 105 ft 10 kts 352°
2026-04-28 07:13 39.49685 116.42286 105 ft 9 kts 354°
2026-04-28 07:13 39.49740 116.42269 105 ft 6 kts 316°
2026-04-28 07:14 39.49746 116.42239 105 ft 4 kts 294°
2026-04-28 07:14 39.49743 116.42127 105 ft 14 kts 263°
2026-04-28 07:14 39.49732 116.42006 105 ft 13 kts 262°
2026-04-28 07:14 39.49721 116.41889 105 ft 13 kts 264°
2026-04-28 07:15 39.49721 116.41837 105 ft 2 kts 298°
2026-04-28 07:15 39.49740 116.41828 105 ft 5 kts 358°
2026-04-28 07:15 39.49768 116.41823 105 ft 4 kts 353°
2026-04-28 07:15 39.49791 116.41820 105 ft 0 kts 353°